Location: Praha
(50.0830°N, 14.4670°E)
Time: 11:18:58
(UTC+02:00)

ISS - Pass Details

Date: 17 May 2019
Orbit: 407 x 410 km, 51.6° (Epoch: 21 May)

Event Time Altitude Azimuth Distance (km) Brightness Sun altitude
Rises 03:46:59 0° 287° (WNW) 2,339 -0.2 -11.3°
Reaches altitude 10° 03:49:06 10° 283° (WNW) 1,476 -1.3 -11.1°
Maximum altitude 03:52:20 54° 205° (SSW) 503 -3.7 -10.8°
Drops below altitude 10° 03:55:34 10° 127° (SE) 1,472 -0.9 -10.4°
Sets 03:57:40 0° 123° (ESE) 2,331 0.2 -10.2°
